When you browse on this site, cookies collect data to enhance your experience and personalize the content and advertising you see.
Visit our Privacy Policy to learn more. By continuing to use the site, you agree to this use of cookies and data.
  • In Italy
  • List of Countries
  • For 7 days
  • Water Temperature
  • Satellite Maps
  • Weather Map
  • Weather Widgets
  • user-avatar
    Login

    Hourly Weather Hohly

    Today, 21 February, Thursday

    Time Temperature Precipitation Wind Pressure Humidity
    00:00 -6°C° 0 mm 6 mps 736 mmHg 78%
    01:00 -6°C° 0 mm 6 mps 737 mmHg 79%
    02:00 -7°C° 0 mm 4 mps 737 mmHg 83%
    03:00 -7°C° 0 mm 5 mps 737 mmHg 81%
    04:00 -8°C° 0 mm 6 mps 738 mmHg 78%
    05:00 -9°C° 0 mm 7 mps 738 mmHg 75%
    06:00 -9°C° 0 mm 7 mps 738 mmHg 76%
    07:00 -9°C° 0 mm 7 mps 739 mmHg 76%
    08:00 -10°C° 0 mm 6 mps 740 mmHg 77%
    09:00 -9°C° 0.1 mm 7 mps 740 mmHg 75%
    10:00 -9°C° 0.1 mm 7 mps 741 mmHg 72%
    11:00 -10°C° 0.1 mm 8 mps 742 mmHg 70%
    12:00 -10°C° 0 mm 8 mps 742 mmHg 70%
    13:00 -10°C° 0 mm 8 mps 743 mmHg 69%
    14:00 -8°C° 0 mm 6 mps 743 mmHg 70%
    15:00 -9°C° 0.1 mm 6 mps 743 mmHg 71%
    16:00 -9°C° 0.1 mm 6 mps 744 mmHg 72%
    17:00 -10°C° 0.1 mm 6 mps 744 mmHg 73%
    18:00 -10°C° 0 mm 6 mps 745 mmHg 74%
    19:00 -11°C° 0 mm 6 mps 745 mmHg 76%
    20:00 -11°C° 0 mm 5 mps 746 mmHg 77%
    21:00 -12°C° 0 mm 5 mps 746 mmHg 77%
    22:00 -12°C° 0 mm 5 mps 747 mmHg 76%
    23:00 -12°C° 0 mm 5 mps 747 mmHg 76%

    Tomorrow, 22 February, Friday

    Time Temperature Precipitation Wind Pressure Humidity
    00:00 -13°C° 0 mm 5 mps 748 mmHg 76%
    01:00 -13°C° 0 mm 5 mps 748 mmHg 76%
    02:00 -14°C° 0 mm 5 mps 749 mmHg 76%
    03:00 -14°C° 0 mm 5 mps 749 mmHg 76%
    04:00 -15°C° 0 mm 6 mps 749 mmHg 76%
    05:00 -15°C° 0 mm 6 mps 749 mmHg 77%
    06:00 -15°C° 0 mm 6 mps 750 mmHg 76%
    07:00 -15°C° 0 mm 6 mps 750 mmHg 76%
    08:00 -14°C° 0 mm 7 mps 751 mmHg 76%
    09:00 -14°C° 0 mm 7 mps 751 mmHg 74%
    10:00 -13°C° 0 mm 7 mps 752 mmHg 73%
    11:00 -13°C° 0 mm 8 mps 753 mmHg 71%
    12:00 -12°C° 0 mm 8 mps 753 mmHg 70%
    13:00 -12°C° 0 mm 8 mps 754 mmHg 69%
    14:00 -12°C° 0 mm 8 mps 754 mmHg 68%
    15:00 -12°C° 0 mm 7 mps 755 mmHg 70%
    16:00 -11°C° 0 mm 6 mps 755 mmHg 72%
    17:00 -11°C° 0 mm 6 mps 756 mmHg 73%
    18:00 -12°C° 0 mm 5 mps 757 mmHg 75%
    19:00 -12°C° 0 mm 5 mps 757 mmHg 77%
    20:00 -13°C° 0 mm 5 mps 758 mmHg 79%
    21:00 -13°C° 0 mm 5 mps 758 mmHg 81%
    22:00 -12°C° 0 mm 4 mps 759 mmHg 83%
    23:00 -12°C° 0 mm 4 mps 759 mmHg 84%

    Day after tomorrow, 23 February, Saturday

    Time Temperature Precipitation Wind Pressure Humidity
    00:00 -14°C° 0 mm 4 mps 760 mmHg 86%
    01:00 -14°C° 0 mm 4 mps 760 mmHg 88%
    02:00 -13°C° 0 mm 3 mps 761 mmHg 89%
    03:00 -13°C° 0 mm 3 mps 761 mmHg 90%
    04:00 -14°C° 0 mm 3 mps 762 mmHg 91%
    05:00 -14°C° 0 mm 3 mps 762 mmHg 92%
    06:00 -14°C° 0 mm 3 mps 762 mmHg 92%
    07:00 -13°C° 0 mm 2 mps 762 mmHg 91%
    08:00 -13°C° 0 mm 2 mps 762 mmHg 91%
    09:00 -10°C° 0 mm 2 mps 762 mmHg 85%
    10:00 -8°C° 0 mm 2 mps 762 mmHg 80%
    11:00 -7°C° 0 mm 2 mps 762 mmHg 74%
    12:00 -6°C° 0 mm 2 mps 762 mmHg 72%
    13:00 -6°C° 0 mm 3 mps 761 mmHg 69%
    14:00 -7°C° 0 mm 4 mps 761 mmHg 67%
    15:00 -7°C° 0 mm 4 mps 760 mmHg 69%
    16:00 -7°C° 0 mm 4 mps 760 mmHg 70%
    17:00 -8°C° 0 mm 4 mps 759 mmHg 72%
    18:00 -8°C° 0.2 mm 5 mps 759 mmHg 76%
    19:00 -8°C° 0.2 mm 5 mps 758 mmHg 81%
    20:00 -9°C° 0.2 mm 6 mps 758 mmHg 85%
    21:00 -8°C° 0.1 mm 5 mps 758 mmHg 86%
    22:00 -7°C° 0.1 mm 5 mps 757 mmHg 88%
    23:00 -7°C° 0.1 mm 5 mps 757 mmHg 90%

    24 February, Sunday

    Time Temperature Precipitation Wind Pressure Humidity
    00:00 -7°C° 0 mm 5 mps 756 mmHg 90%
    01:00 -6°C° 0 mm 5 mps 756 mmHg 91%
    02:00 -6°C° 0 mm 5 mps 756 mmHg 91%
    03:00 -5°C° 0 mm 4 mps 756 mmHg 92%
    04:00 -4°C° 0 mm 4 mps 755 mmHg 92%
    05:00 -4°C° 0 mm 4 mps 755 mmHg 92%
    06:00 -4°C° 0 mm 4 mps 755 mmHg 93%
    07:00 -3°C° 0 mm 4 mps 755 mmHg 93%
    08:00 -3°C° 0 mm 4 mps 755 mmHg 94%
    09:00 -3°C° 0 mm 4 mps 755 mmHg 94%
    10:00 -2°C° 0 mm 4 mps 755 mmHg 94%
    11:00 -2°C° 0 mm 4 mps 755 mmHg 95%
    12:00 0°C° 0 mm 3 mps 755 mmHg 95%
    13:00 0°C° 0 mm 3 mps 755 mmHg 96%
    14:00 0°C° 0 mm 3 mps 755 mmHg 97%
    15:00 0°C° 0 mm 3 mps 755 mmHg 96%
    16:00 0°C° 0 mm 3 mps 755 mmHg 96%
    17:00 0°C° 0 mm 3 mps 755 mmHg 95%
    18:00 0°C° 0 mm 3 mps 755 mmHg 95%
    19:00 -1°C° 0 mm 3 mps 755 mmHg 96%
    20:00 -1°C° 0 mm 3 mps 755 mmHg 96%
    21:00 -1°C° 0 mm 4 mps 754 mmHg 96%
    22:00 -1°C° 0 mm 4 mps 754 mmHg 95%
    23:00 -1°C° 0 mm 4 mps 754 mmHg 95%

    25 February, Monday

    Time Temperature Precipitation Wind Pressure Humidity
    00:00 -1°C° 0 mm 4 mps 754 mmHg 94%
    01:00 -1°C° 0 mm 4 mps 753 mmHg 94%
    02:00 -1°C° 0 mm 4 mps 753 mmHg 94%
    03:00 -1°C° 0 mm 4 mps 753 mmHg 94%
    04:00 -1°C° 0 mm 4 mps 753 mmHg 94%
    05:00 -1°C° 0 mm 4 mps 752 mmHg 94%
    06:00 -1°C° 0 mm 4 mps 752 mmHg 94%
    07:00 -1°C° 0 mm 4 mps 752 mmHg 94%
    08:00 -1°C° 0 mm 4 mps 752 mmHg 94%
    09:00 -1°C° 0 mm 4 mps 752 mmHg 93%
    10:00 -1°C° 0 mm 4 mps 752 mmHg 92%
    11:00 -1°C° 0 mm 4 mps 752 mmHg 90%
    12:00 0°C° 0 mm 5 mps 752 mmHg 88%
    13:00 0°C° 0 mm 5 mps 752 mmHg 86%
    14:00 0°C° 0 mm 5 mps 752 mmHg 84%
    15:00 0°C° 0 mm 5 mps 752 mmHg 83%
    16:00 0°C° 0 mm 4 mps 751 mmHg 82%
    17:00 -1°C° 0 mm 4 mps 751 mmHg 80%
    18:00 -1°C° 0 mm 4 mps 751 mmHg 82%
    19:00 -1°C° 0 mm 5 mps 750 mmHg 83%
    20:00 -1°C° 0 mm 5 mps 750 mmHg 85%
    21:00 -1°C° 0 mm 5 mps 749 mmHg 86%
    22:00 0°C° 0 mm 5 mps 749 mmHg 87%
    23:00 0°C° 0 mm 5 mps 748 mmHg 89%

    26 February, Tuesday

    Time Temperature Precipitation Wind Pressure Humidity
    00:00 0°C° 0.1 mm 5 mps 748 mmHg 89%
    01:00 0°C° 0.1 mm 5 mps 748 mmHg 90%
    02:00 -1°C° 0.1 mm 5 mps 747 mmHg 90%
    03:00 -1°C° 0 mm 5 mps 747 mmHg 90%
    04:00 -1°C° 0 mm 4 mps 747 mmHg 90%
    05:00 -1°C° 0 mm 4 mps 747 mmHg 90%
    06:00 -2°C° 0 mm 4 mps 746 mmHg 91%
    07:00 -2°C° 0 mm 4 mps 746 mmHg 91%
    08:00 -2°C° 0 mm 4 mps 746 mmHg 92%
    09:00 -2°C° 0 mm 4 mps 746 mmHg 89%
    10:00 -1°C° 0 mm 4 mps 745 mmHg 87%
    11:00 -1°C° 0 mm 4 mps 745 mmHg 85%
    12:00 -1°C° 0.1 mm 4 mps 744 mmHg 86%
    13:00 -1°C° 0.1 mm 4 mps 743 mmHg 87%
    14:00 -1°C° 0.1 mm 4 mps 742 mmHg 88%
    15:00 -1°C° 0.7 mm 4 mps 742 mmHg 89%
    16:00 0°C° 0.7 mm 4 mps 741 mmHg 90%
    17:00 0°C° 0.7 mm 5 mps 740 mmHg 92%
    18:00 0°C° 0.3 mm 5 mps 740 mmHg 89%
    19:00 -1°C° 0.3 mm 6 mps 740 mmHg 87%
    20:00 -1°C° 0.3 mm 7 mps 741 mmHg 85%
    21:00 -1°C° 0.1 mm 7 mps 741 mmHg 85%
    22:00 -2°C° 0.1 mm 7 mps 742 mmHg 86%
    23:00 -2°C° 0.1 mm 6 mps 742 mmHg 86%
    Show more